GFSNW_700_spd_105.txt.gz
Wind_Speed
18 20 21 21 18 16 14 11 8 10 10 8 12 13 10 9 12 6 7 9 9 12 14 10 7 12 12 10 5 4 6 6 4 4 6 5 5 9 13 10 5 12 12 12
18 19 19 17 13 12 14 9 7 8 7 4 7 9 11 9 3 6 7 6 7 9 10 6 7 9 8 10 8 4 4 4 3 4 4 5 6 7 11 15 12 14 8 4
16 17 16 13 11 8 11 13 7 7 8 4 4 7 9 11 6 4 8 6 7 8 9 7 6 8 9 9 8 1 1 5 5 2 3 4 5 7 10 13 8 8 14 15
15 15 13 12 10 6 7 11 11 8 5 4 5 5 6 8 6 2 6 4 8 11 9 11 9 7 10 8 4 4 2 2 5 8 11 11 12 12 11 10 9 8 7 10
15 15 12 11 9 6 5 8 9 10 8 6 6 5 4 6 6 7 4 7 6 6 7 6 14 14 9 3 2 5 5 3 4 3 8 11 17 15 15 16 17 16 15 18
15 15 14 13 10 7 6 5 8 9 9 8 7 8 7 9 13 5 5 10 11 7 9 15 14 15 11 10 7 3 3 5 7 2 2 5 7 10 12 14 14 16 14 15
16 16 16 15 11 11 11 9 8 9 11 11 10 9 10 11 12 15 5 10 14 12 15 17 21 13 13 13 8 6 3 2 5 3 5 2 5 6 10 9 10 6 10 14
18 17 17 18 14 13 14 13 11 10 15 13 9 10 11 11 12 13 13 10 13 13 16 20 9 2 2 3 7 11 9 11 4 2 4 5 3 6 7 6 4 6 8 9
19 19 18 19 18 12 17 15 15 13 13 14 8 5 6 8 7 7 8 9 10 11 13 12 6 4 5 3 1 2 8 14 11 2 3 1 3 8 3 2 3 5 3 3
21 20 19 19 19 12 17 14 15 18 19 17 12 9 11 7 8 10 9 9 8 11 10 8 4 4 5 3 4 3 3 4 15 11 4 4 6 6 3 3 4 5 4 3
22 21 19 21 21 14 19 17 16 18 20 19 19 14 12 9 9 11 8 9 6 6 4 4 3 4 4 4 4 3 3 1 4 9 5 7 7 6 8 6 4 6 4 3
24 22 20 22 22 17 18 21 15 16 20 18 11 9 6 9 12 12 11 9 4 2 3 9 4 3 4 8 4 6 2 7 5 7 6 9 3 7 8 8 7 5 5 2
24 23 22 23 22 19 18 13 13 19 21 20 16 17 16 12 10 14 14 12 12 11 9 9 5 4 3 3 5 8 13 13 14 8 16 10 8 5 7 8 8 6 6 5
24 23 23 23 23 24 18 20 16 15 19 21 18 16 10 12 13 13 14 11 13 10 12 14 12 12 7 7 11 17 13 18 8 6 11 12 10 11 11 12 10 4 1 2
24 22 23 22 21 22 20 19 16 16 11 15 7 8 5 17 18 13 15 11 11 12 13 14 14 14 9 11 14 10 10 10 2 1 9 13 16 15 12 9 6 4 4 5
22 22 22 22 20 18 19 18 19 16 12 16 15 5 8 10 11 15 17 13 13 13 14 8 9 5 6 5 6 7 11 6 5 4 2 7 8 9 5 6 7 3 6 7
21 21 19 22 23 19 25 13 14 10 12 14 9 5 10 11 11 14 17 18 18 14 13 14 13 11 11 13 15 13 13 11 7 5 2 3 3 3 3 3 5 6 9 8
21 19 15 20 20 21 23 20 17 9 7 10 6 5 6 9 9 13 17 17 18 18 16 14 13 13 12 8 11 10 11 12 9 8 5 6 7 6 3 4 6 9 10 11
26 19 18 19 22 23 23 20 17 13 11 6 7 6 3 3 8 9 12 15 15 17 19 18 11 14 9 10 11 8 6 10 11 10 9 8 6 6 9 10 11 12 13 14
30 22 18 24 23 22 19 16 19 15 14 15 15 11 7 5 4 8 14 11 11 8 18 17 22 27 25 23 18 14 13 12 11 8 7 8 10 11 14 15 16 16 17 17
26 27 27 19 15 22 18 12 14 12 10 12 13 15 14 11 9 7 16 8 9 8 11 11 7 15 20 24 23 22 19 17 17 14 14 17 18 19 19 19 17 16 17 17
31 30 29 25 20 10 10 14 12 8 12 11 7 11 14 16 14 8 11 10 12 6 10 9 6 16 14 14 18 21 20 17 17 19 18 19 20 20 19 19 18 17 16 16
31 33 27 17 14 9 14 16 14 16 11 8 15 10 9 12 12 8 7 9 8 6 11 6 10 9 13 15 15 17 17 17 17 17 17 18 19 18 17 17 16 16 16 15
34 23 17 11 11 13 14 20 18 18 15 12 10 8 11 11 5 4 3 6 7 6 5 6 9 12 12 10 10 12 13 15 16 17 18 17 17 18 18 16 16 17 17 17
24 17 8 17 17 13 13 14 18 18 17 12 11 12 9 6 5 3 2 5 4 5 6 8 7 9 10 11 12 13 15 16 16 15 14 14 15 14 14 14 14 14 14 14
19 13 12 18 16 15 17 18 19 18 15 12 13 7 5 6 4 4 5 3 4 4 6 5 6 6 8 10 12 13 13 13 12 12 11 11 11 11 11 10 10 10 10 10
14 15 18 20 20 19 18 20 20 18 18 17 8 7 6 5 4 5 5 5 6 5 5 5 7 8 9 9 9 9 8 9 8 7 7 7 7 7 7 7 7 6 6 6

GFSNW_700_spd_111.txt.gz
Wind_Speed
10 7 7 7 10 9 9 8 2 9 5 3 6 4 7 7 6 8 8 10 13 16 19 14 14 20 20 19 17 5 2 11 22 21 16 18 32 23 24 17 17 17 15 3
11 9 6 7 10 7 7 5 4 6 2 0 1 5 6 7 6 5 8 8 13 17 14 8 12 15 16 19 17 6 6 3 5 7 8 11 21 24 21 19 13 10 11 11
12 11 6 6 9 6 4 3 2 5 3 1 2 6 5 7 7 4 8 7 10 14 12 13 8 16 16 16 14 3 6 8 6 5 4 13 17 20 21 18 15 16 16 13
15 12 8 7 9 6 3 2 2 2 3 2 3 4 6 7 8 7 8 5 11 15 15 16 12 18 16 13 10 10 8 7 7 5 10 2 6 13 14 17 17 14 8 10
18 13 11 10 9 7 5 3 0 3 2 3 2 5 4 7 7 10 9 12 15 17 16 17 23 20 15 11 10 14 9 6 10 9 7 6 7 8 10 13 14 15 16 12
20 15 14 13 10 8 6 6 4 2 4 2 3 5 6 7 11 8 7 14 19 17 16 21 22 24 24 22 17 15 8 9 8 3 2 4 10 14 15 13 13 13 17 9
22 17 18 14 12 9 7 8 7 5 3 4 4 8 9 10 11 15 16 15 15 15 17 19 20 17 16 14 12 11 9 9 6 7 2 5 2 2 8 11 8 5 5 4
21 22 20 16 15 12 10 10 8 7 4 5 7 8 8 9 11 13 13 11 13 15 16 19 14 7 5 4 9 10 11 4 6 5 7 7 4 1 3 5 10 10 8 6
25 24 22 19 15 15 12 11 8 9 6 2 8 7 8 9 9 9 7 12 10 12 13 10 9 8 6 1 4 5 9 9 9 6 5 2 10 2 13 7 4 3 10 7
26 24 22 20 18 17 12 10 8 9 8 7 7 7 8 7 8 9 10 11 9 8 10 10 10 7 7 5 5 2 1 5 12 12 9 2 11 10 5 5 3 6 7 4
26 24 23 22 20 19 16 10 10 8 9 9 10 3 9 11 10 10 14 11 5 7 6 7 8 8 7 6 5 3 5 5 3 5 6 3 8 7 4 7 3 4 3 3
27 26 25 23 21 20 18 13 14 7 16 12 12 12 12 14 17 18 16 11 11 5 5 5 7 9 8 12 6 7 2 8 8 6 9 12 13 10 6 7 6 5 5 5
27 26 26 24 23 20 20 14 10 16 16 15 13 7 10 13 16 12 13 10 7 6 10 9 8 6 11 9 8 9 10 12 7 11 9 11 11 10 7 9 8 6 6 6
26 26 26 25 23 21 22 18 17 17 16 18 11 15 6 11 13 14 18 14 14 10 10 10 10 10 6 12 13 13 13 11 15 14 10 11 11 10 9 8 5 7 9 7
23 24 24 24 23 21 22 19 17 19 15 11 6 11 19 17 12 13 14 16 12 12 12 14 12 9 12 12 10 8 11 11 15 11 14 13 13 11 8 9 10 9 10 9
21 22 24 25 23 21 17 20 16 19 16 19 14 10 15 15 11 11 15 16 18 15 14 13 15 11 7 8 8 11 13 15 16 15 11 6 7 8 9 8 7 7 9 8
20 22 24 24 24 22 23 15 11 14 15 19 14 7 14 8 13 14 14 16 18 14 15 16 13 10 13 13 13 16 17 12 13 12 8 5 4 5 6 6 6 7 8 9
20 22 23 23 25 26 23 23 9 10 14 19 9 8 11 9 8 11 12 14 13 16 16 16 15 13 13 9 15 15 13 12 13 8 9 8 8 8 8 6 4 3 4 6
21 22 23 24 25 24 21 14 14 13 17 9 11 10 5 5 8 7 10 11 14 14 16 13 10 10 9 15 13 11 15 17 16 13 12 12 9 8 6 6 6 7 8 10
22 23 23 22 25 21 23 15 19 17 21 21 23 14 9 7 7 9 9 7 9 7 13 10 16 17 21 22 23 25 24 23 21 18 16 15 12 9 10 13 13 14 14 13
27 32 27 14 18 26 18 14 16 15 13 21 23 19 14 12 12 7 6 4 4 5 7 10 6 13 22 21 23 23 22 20 20 21 20 17 17 18 16 15 15 14 15 15
35 29 17 30 24 13 11 13 12 10 13 11 11 14 19 17 15 10 5 7 6 6 8 6 5 18 20 20 19 18 18 17 17 17 17 17 17 17 16 16 16 16 15 15
34 20 24 17 14 13 14 15 14 19 13 12 14 12 10 16 14 10 6 6 8 6 6 5 11 14 15 15 14 12 12 15 15 14 16 18 18 18 17 18 18 18 18 18
20 14 13 11 10 12 12 17 17 22 17 13 8 8 9 11 11 9 6 8 5 4 5 8 15 14 15 15 15 15 14 14 14 14 14 16 18 19 20 20 19 18 18 17
14 8 6 16 14 15 17 13 10 14 19 16 14 10 11 10 8 7 7 4 4 5 8 12 10 11 12 13 14 14 14 14 14 15 15 15 16 16 16 16 16 16 16 15
20 11 13 12 19 14 14 16 11 15 21 18 13 10 5 7 6 5 6 3 4 6 6 7 9 9 9 8 10 11 12 12 12 12 12 12 12 12 11 11 11 11 11 12
13 14 18 14 20 19 14 16 16 17 20 18 10 8 8 5 5 5 6 8 9 9 8 8 9 9 10 11 11 10 10 10 10 11 10 10 10 9 9 9 8 8 8 8

GFSNW_700_spd_114.txt.gz
Wind_Speed
15 13 11 8 4 4 4 4 1 6 3 4 6 3 5 8 6 8 8 8 12 16 18 14 14 19 19 23 26 17 10 10 8 9 18 17 16 16 22 14 12 11 2 3
15 13 11 8 5 3 3 1 5 2 2 3 1 5 3 5 6 5 7 8 9 15 16 12 13 18 19 21 19 21 12 5 8 13 8 18 21 23 17 18 15 7 5 3
15 13 11 8 7 2 3 2 2 2 4 5 3 6 1 5 5 5 8 10 9 14 15 15 11 19 19 20 16 19 14 10 9 8 14 7 8 22 22 16 15 12 9 5
16 13 12 10 7 3 4 2 2 1 5 2 6 4 4 5 5 6 7 6 11 14 18 17 17 19 21 19 11 17 17 9 12 19 13 13 5 9 7 21 16 13 9 4
17 15 13 11 9 5 6 5 4 1 4 5 4 4 1 6 7 9 9 10 14 14 16 17 22 21 20 23 16 18 16 10 14 18 9 3 4 10 10 7 14 8 7 7
18 18 15 11 11 8 8 7 4 4 6 1 3 3 5 8 11 7 10 16 19 18 17 23 24 23 21 19 17 16 13 11 15 5 12 8 3 5 5 6 2 4 3 4
21 20 16 14 13 11 10 9 7 4 4 3 4 7 9 9 11 15 15 15 17 17 20 20 17 12 14 13 11 10 9 10 8 9 9 1 5 3 4 5 4 3 8 6
23 21 18 17 15 12 13 10 8 5 6 4 5 6 7 9 10 11 12 13 15 16 16 20 12 17 7 5 3 7 9 6 6 6 11 5 15 16 9 5 4 3 4 7
25 22 20 19 16 14 14 11 8 8 7 5 5 5 7 10 9 9 7 13 18 12 14 12 11 16 14 6 7 3 6 7 7 12 6 3 11 12 11 6 1 4 1 4
25 24 22 21 16 16 14 10 12 10 8 9 7 5 6 7 8 10 11 15 14 7 9 12 13 11 13 8 5 10 5 5 9 11 7 2 13 11 6 2 7 8 3 4
23 24 23 21 19 18 16 8 13 11 7 8 8 7 7 5 7 12 13 11 9 8 8 7 8 9 10 10 9 5 6 7 10 10 5 1 14 7 6 5 12 12 8 5
23 23 23 22 20 19 17 13 13 14 12 8 7 9 10 14 13 13 12 12 13 5 7 7 7 10 10 13 7 9 4 8 5 6 7 10 13 10 2 5 9 12 9 7
24 23 22 23 21 20 18 15 14 15 17 10 10 9 10 10 10 9 9 9 5 4 10 12 8 6 11 11 12 19 10 12 6 8 10 12 11 8 6 8 11 10 7 6
23 24 22 22 21 21 19 18 12 14 13 12 6 11 12 7 13 13 9 13 13 12 13 11 10 10 6 14 14 13 9 13 14 9 14 18 12 9 9 9 9 7 9 9
19 20 20 21 21 20 19 17 13 15 14 9 6 5 12 19 14 10 7 9 12 14 14 12 13 11 13 10 9 9 7 14 17 12 16 16 11 9 10 10 10 10 11 11
17 16 17 19 21 20 18 14 14 13 15 19 16 7 11 17 15 14 5 10 13 13 15 13 15 9 9 8 7 11 14 17 14 15 16 12 9 8 7 8 9 10 10 10
17 15 16 20 21 23 20 15 14 14 16 16 12 8 12 12 9 7 10 14 16 16 18 18 14 10 13 14 11 13 14 15 13 15 11 10 10 9 9 9 9 8 9 10
20 18 17 21 23 23 21 16 10 10 10 14 9 8 11 10 10 8 7 11 13 12 12 13 12 11 13 9 13 11 12 9 13 15 15 14 12 11 10 10 9 9 8 7
18 19 19 22 24 24 20 23 20 10 11 7 12 15 6 4 5 5 6 9 10 8 14 14 8 10 9 13 16 12 13 16 19 21 17 13 14 12 7 7 9 11 10 10
19 17 21 25 23 17 18 19 19 17 19 22 18 12 10 8 6 5 5 6 7 6 12 5 14 15 18 18 21 23 22 22 22 22 21 16 16 14 14 14 13 12 13 13
20 20 19 15 14 19 19 12 13 13 10 18 25 19 18 15 12 10 6 4 3 4 5 9 4 12 18 18 19 21 22 20 18 19 18 17 15 16 16 13 14 13 12 14
20 21 21 19 16 12 13 12 13 10 12 16 13 16 14 16 13 9 5 6 5 6 4 5 5 15 15 16 17 17 17 17 16 14 15 15 14 14 14 14 14 14 14 15
24 25 23 9 16 15 13 15 12 16 15 14 15 15 11 15 14 7 6 5 7 6 5 5 10 11 12 14 15 14 13 13 14 15 14 14 14 14 14 14 14 15 16 16
23 23 9 10 13 14 11 18 15 19 19 15 7 12 7 11 8 7 4 6 6 5 4 8 12 12 13 14 14 13 13 13 14 15 15 14 14 14 14 14 15 14 14 14
13 16 7 10 8 11 15 15 15 15 15 17 14 9 8 8 6 5 6 4 5 5 8 10 10 10 10 11 11 12 11 11 12 13 13 13 13 13 12 13 13 13 12 12
14 7 5 11 14 9 14 19 15 10 13 15 13 9 5 7 5 5 6 4 4 2 6 7 8 9 10 9 10 11 12 11 11 11 11 11 11 11 11 11 11 11 10 10
13 10 6 7 12 18 13 11 16 14 18 19 11 8 8 5 5 6 7 11 12 12 11 9 9 9 10 10 9 9 9 10 10 11 12 12 12 11 11 12 12 11 11 11

GFSNW_700_spd_117.txt.gz
Wind_Speed
26 19 16 14 11 9 7 5 4 1 3 6 8 4 5 5 1 4 5 7 9 12 19 19 16 18 18 25 25 30 24 7 20 16 12 5 7 20 17 8 5 4 9 3
23 18 16 14 11 10 8 6 3 1 5 8 3 2 0 3 2 2 4 6 10 10 15 14 19 19 22 22 24 23 29 12 12 17 11 8 14 10 20 18 12 5 3 6
22 19 16 13 12 10 8 6 6 5 8 6 6 3 2 4 6 5 6 7 10 11 13 9 18 24 21 26 17 18 21 12 9 6 14 21 20 9 15 16 11 6 2 6
20 18 15 13 12 10 7 6 6 7 3 8 10 8 4 3 3 6 4 7 10 12 16 20 20 25 24 22 6 10 16 17 17 16 17 18 4 8 4 10 5 9 4 5
20 17 15 13 11 10 10 8 9 12 7 0 6 2 3 2 4 9 6 8 14 16 12 17 28 28 20 23 14 13 13 15 20 14 13 4 11 0 8 5 5 6 3 10
20 17 15 15 12 11 10 8 8 10 9 7 3 3 3 4 8 5 9 15 15 15 16 23 24 20 12 19 21 14 9 14 18 7 14 9 12 11 7 18 10 1 4 6
20 18 17 14 13 13 9 7 8 7 11 10 3 4 6 6 6 12 10 10 12 17 20 17 10 7 10 12 14 6 8 10 9 10 19 3 11 20 20 21 24 23 13 9
22 20 17 16 16 12 11 10 10 9 13 12 5 3 4 6 7 7 6 10 15 19 13 15 11 11 5 7 11 5 7 6 6 6 14 3 22 16 14 16 18 15 13 8
22 20 18 18 16 14 12 9 8 10 9 12 11 8 6 7 5 4 7 10 14 11 11 14 7 5 15 7 9 12 6 4 4 9 4 4 17 10 4 6 15 13 6 5
22 20 20 19 18 15 14 11 10 10 6 11 12 12 7 8 8 10 10 11 10 9 10 11 7 6 11 9 14 12 15 8 11 9 2 3 19 15 4 5 7 15 15 9
20 23 22 20 18 17 15 14 12 12 9 10 13 8 8 6 7 10 11 10 4 8 7 5 6 6 11 12 12 15 10 6 8 8 7 4 19 13 11 6 5 10 15 10
18 20 21 21 20 18 17 16 12 13 12 8 10 8 8 9 7 10 8 8 9 4 4 5 5 10 7 14 9 18 7 12 5 7 3 11 14 7 2 5 9 10 10 10
17 17 19 20 20 19 19 17 12 10 11 8 6 9 8 5 5 7 9 6 2 4 5 7 6 3 8 7 9 14 9 11 11 4 8 11 10 7 6 9 11 11 9 8
20 18 17 19 19 19 19 19 12 11 11 6 9 7 8 8 5 10 8 8 10 11 10 9 8 9 5 10 10 12 10 8 9 5 9 13 10 10 8 6 8 9 7 9
18 17 18 19 20 20 19 18 13 12 13 6 6 6 5 9 8 11 9 5 6 11 13 12 11 10 11 9 7 3 6 9 10 6 9 9 9 8 7 6 7 9 11 10
13 12 15 18 20 19 19 17 14 11 13 13 11 5 6 11 9 11 7 5 8 9 11 10 14 9 8 5 5 6 7 11 12 11 12 11 10 9 8 8 7 9 11 11
13 10 12 16 19 21 21 17 14 13 11 12 6 5 5 7 9 9 5 7 10 12 16 17 14 10 12 11 12 12 11 9 7 11 13 15 16 12 11 11 11 10 11 10
13 11 11 14 18 20 20 15 15 11 9 10 6 5 6 6 7 7 7 10 10 12 15 13 8 6 9 7 12 8 8 10 9 12 14 14 13 12 12 10 10 10 10 9
17 16 14 14 17 19 18 17 15 14 14 6 8 11 4 3 5 3 4 6 8 8 9 6 5 5 7 12 14 11 10 12 16 18 19 17 14 12 11 9 11 12 11 11
15 14 17 15 14 17 19 16 16 14 18 18 13 8 11 4 6 8 5 5 5 5 6 4 9 15 13 14 15 18 20 19 19 20 19 19 17 14 13 12 12 12 13 12
21 15 9 11 18 19 18 12 13 10 11 14 20 16 13 10 10 9 5 4 3 4 3 5 4 10 15 17 18 18 17 17 16 15 16 16 16 16 13 11 13 13 13 13
14 12 22 16 17 11 10 12 10 10 14 10 11 11 14 16 12 8 4 5 4 5 4 4 4 12 11 11 11 12 15 13 13 12 12 14 14 14 14 14 14 14 14 15
15 23 24 9 15 13 12 16 15 15 9 14 17 15 14 12 11 7 5 5 6 4 5 5 7 11 9 9 10 12 11 11 11 11 11 12 12 13 14 14 15 16 16 17
19 18 16 7 10 14 13 18 20 22 19 16 10 10 10 12 10 8 5 6 5 5 5 6 8 8 9 9 8 9 10 10 10 11 10 11 11 11 12 12 12 12 13 14
15 9 9 11 7 12 16 14 17 15 13 12 14 10 9 9 7 6 5 4 4 6 5 7 7 7 7 8 8 8 8 9 10 11 11 11 10 10 10 10 10 10 10 10
11 10 9 7 5 17 20 17 15 11 10 13 16 11 6 7 5 6 6 4 5 4 4 7 7 6 7 8 8 8 8 7 8 8 9 9 9 10 10 11 11 11 11 10
11 10 17 9 10 13 17 17 15 13 11 19 14 8 7 5 6 7 9 14 13 10 9 7 6 8 8 6 5 6 8 8 9 10 10 11 11 10 10 11 11 11 11 12

GFSNW_700_spd_123.txt.gz
Wind_Speed
34 34 34 32 28 26 22 22 18 18 16 18 18 16 12 10 9 6 4 3 3 6 9 10 9 6 10 17 22 16 11 10 17 19 7 14 10 6 12 6 6 7 9 3
33 33 29 27 25 25 22 22 20 19 20 18 20 17 14 12 10 5 5 6 6 8 9 9 6 14 19 16 12 12 16 8 12 13 10 13 24 15 16 10 10 3 4 4
32 30 29 29 28 25 25 24 16 19 22 20 21 17 15 13 8 7 6 4 7 8 9 9 10 22 13 7 4 10 13 11 10 9 24 29 25 12 11 4 4 6 0 7
30 29 28 27 27 24 24 21 15 18 25 23 20 17 15 14 14 12 10 6 9 14 13 20 4 16 14 2 6 11 18 12 13 19 7 24 10 9 6 12 12 3 10 13
30 25 27 27 24 25 24 20 15 20 19 18 19 18 15 15 13 12 10 11 12 13 15 13 17 15 8 10 14 16 13 9 18 1 13 8 32 25 13 9 14 11 10 16
26 30 25 27 23 24 21 17 13 18 21 18 17 17 20 15 13 9 11 11 10 8 8 11 9 8 1 9 15 14 7 12 19 7 18 4 10 22 25 24 12 5 9 11
27 33 24 23 23 22 19 16 16 17 20 18 18 18 14 12 9 8 9 8 8 7 8 8 2 3 2 5 9 13 8 9 8 9 10 4 7 17 9 17 21 19 13 11
27 27 24 23 22 21 20 17 18 17 23 20 18 17 13 10 7 9 8 6 7 8 4 1 4 2 4 3 6 13 8 6 5 6 6 2 11 17 9 11 21 19 11 4
28 25 25 23 22 20 19 17 17 19 20 21 17 16 13 10 9 8 6 7 6 4 2 1 2 2 4 4 2 5 7 6 3 6 3 2 16 8 1 4 12 16 16 13
26 23 23 23 22 20 18 17 17 17 19 18 18 14 10 7 6 7 7 5 5 2 2 3 3 1 2 3 8 11 2 4 8 7 1 2 17 11 1 3 5 12 14 13
23 22 23 23 23 21 17 16 15 15 16 12 16 13 9 6 5 3 2 1 3 3 3 3 3 2 2 2 7 6 9 6 5 5 3 3 14 6 2 1 6 12 14 14
20 20 22 21 20 16 15 15 15 14 13 9 11 13 11 9 4 2 1 1 2 3 3 2 2 2 1 1 1 5 2 6 5 2 3 9 11 8 4 6 11 15 17 17
36 20 22 21 20 19 17 15 13 12 11 9 9 11 10 8 5 2 1 1 1 2 2 2 3 2 3 2 3 4 7 6 7 4 5 10 8 9 10 10 12 12 14 15
24 21 21 22 20 19 18 15 14 12 10 12 12 10 9 6 7 5 4 4 4 3 4 5 4 3 5 5 8 9 6 4 7 6 6 6 6 8 9 10 11 11 11 13
18 15 14 18 20 20 17 16 15 13 13 8 13 11 9 9 7 6 6 6 4 3 3 5 7 8 8 10 11 9 5 4 6 5 5 6 7 8 8 9 10 11 12 12
17 14 16 14 17 17 17 17 17 15 13 9 12 13 11 8 6 2 2 5 6 5 5 5 4 4 7 6 6 8 6 6 7 5 6 8 10 12 13 13 10 10 12 14
11 9 11 14 13 15 18 17 17 15 13 13 9 12 14 9 8 4 2 4 6 7 8 8 7 7 11 14 14 9 10 10 11 9 10 11 13 14 14 15 14 11 11 12
9 5 9 14 17 17 18 16 12 16 13 13 9 9 12 11 7 4 4 5 6 7 7 6 6 8 8 8 9 9 9 8 9 12 12 15 17 16 14 15 15 15 16 17
10 8 9 12 15 17 17 14 12 14 13 10 10 13 13 11 7 4 3 5 5 5 4 5 5 7 8 9 8 8 8 8 11 14 17 16 16 15 16 17 17 18 18 19
13 13 12 12 16 18 17 15 13 12 15 11 9 16 11 13 9 4 2 3 3 2 4 4 6 10 10 12 11 11 12 14 16 17 16 16 15 15 15 16 17 18 17 17
17 16 14 11 16 21 16 11 13 9 7 11 12 16 13 12 7 2 1 2 2 2 2 3 4 6 5 7 9 10 12 13 15 16 16 15 14 14 16 17 18 18 18 18
17 15 16 15 19 9 8 9 8 6 9 7 16 15 14 14 8 3 3 4 3 4 4 4 5 7 6 6 7 9 10 12 13 13 13 13 14 14 16 17 17 18 19 18
18 17 19 13 12 10 10 13 12 11 6 11 11 19 17 16 13 7 5 4 5 4 5 5 11 8 6 6 7 9 9 10 10 10 10 10 11 12 14 17 18 18 18 18
18 14 14 9 8 7 7 10 13 13 5 4 17 11 14 15 13 8 5 6 4 4 6 8 7 8 8 7 8 8 9 9 9 10 10 9 10 10 12 12 14 15 16 17
15 10 8 8 8 6 7 13 15 19 15 7 10 15 12 11 8 7 7 4 5 7 6 4 5 5 6 7 7 8 9 8 6 6 6 7 8 9 10 11 12 13 14 15
10 8 7 9 10 7 10 16 13 18 19 15 15 13 8 10 6 8 9 6 6 5 5 4 6 8 7 7 9 7 4 2 2 3 3 4 6 9 11 13 13 14 13 14
9 14 7 9 4 2 9 17 13 17 18 23 22 10 9 7 8 10 10 16 13 11 9 11 9 8 8 9 6 3 2 1 0 1 4 7 9 9 11 13 15 15 15 15